Location: Unspecified
(48.2082°N, 0.0000°E)
Time: 22:35:53
(UTC+00:00)

SR - Visible Passes

Search period start: 15 June 2019 00:00
Search period end: 25 June 2019 00:00
Orbit: 582 x 874 km, 66.7° (Epoch: 14 June)

Date Brightness Start Highest point End Pass type
(mag) Time Alt. Az. Time Alt. Az. Time Alt. Az.
20 Jun ? 03:09:17 10° SSE 03:11:58 16° ESE 03:14:40 10° ENE visible
22 Jun ? 03:10:39 10° S 03:14:24 31° ESE 03:18:14 10° NE visible
23 Jun ? 02:22:36 10° SE 02:25:07 15° ESE 02:27:40 10° ENE visible
24 Jun ? 03:12:48 10° SSW 03:16:58 61° ESE 03:21:17 10° NE visible
